• In Hungary
  • List of Countries
  • For 7 days
  • Water Temperature
  • Satellite Maps
  • Weather Map
  • News
  • Weather Widgets
  • user-avatar
    Login

    Hourly Weather Novye Volosovichi

    Today, 24 October, Wednesday

    Time Temperature Precipitation Wind Pressure Humidity
    00:00 +2°C° 0.4 mm 5 mps 722 mmHg 86%
    01:00 +4°C° 0.4 mm 4 mps 721 mmHg 87%
    02:00 +4°C° 0.4 mm 4 mps 720 mmHg 89%
    03:00 +4°C° 0.1 mm 3 mps 719 mmHg 89%
    04:00 +4°C° 0.1 mm 3 mps 719 mmHg 90%
    05:00 +4°C° 0.1 mm 3 mps 718 mmHg 90%
    06:00 +4°C° 0 mm 3 mps 718 mmHg 90%
    07:00 +4°C° 0 mm 3 mps 718 mmHg 89%
    08:00 +5°C° 0 mm 2 mps 718 mmHg 89%
    09:00 +6°C° 0.1 mm 2 mps 718 mmHg 86%
    10:00 +6°C° 0.1 mm 2 mps 718 mmHg 84%
    11:00 +6°C° 0.1 mm 2 mps 718 mmHg 81%
    12:00 +7°C° 0.2 mm 2 mps 719 mmHg 79%
    13:00 +8°C° 0.2 mm 1 mps 719 mmHg 77%
    14:00 +8°C° 0.2 mm 1 mps 719 mmHg 75%
    15:00 +7°C° 0.3 mm 2 mps 720 mmHg 78%
    16:00 +6°C° 0.3 mm 2 mps 720 mmHg 81%
    17:00 +6°C° 0.3 mm 2 mps 721 mmHg 85%
    18:00 +4°C° 0.2 mm 3 mps 722 mmHg 86%
    19:00 +4°C° 0.2 mm 4 mps 723 mmHg 87%
    20:00 +3°C° 0.2 mm 5 mps 723 mmHg 88%
    21:00 +3°C° 0.2 mm 5 mps 724 mmHg 86%
    22:00 +3°C° 0.2 mm 5 mps 725 mmHg 85%
    23:00 +3°C° 0.2 mm 6 mps 726 mmHg 83%

    Tomorrow, 25 October, Thursday

    Time Temperature Precipitation Wind Pressure Humidity
    00:00 +2°C° 0.1 mm 6 mps 726 mmHg 82%
    01:00 +2°C° 0.1 mm 6 mps 727 mmHg 82%
    02:00 +2°C° 0.1 mm 6 mps 727 mmHg 81%
    03:00 +2°C° 0 mm 6 mps 728 mmHg 82%
    04:00 +1°C° 0 mm 6 mps 728 mmHg 83%
    05:00 -1°C° 0 mm 6 mps 728 mmHg 85%
    06:00 -1°C° 0 mm 6 mps 729 mmHg 84%
    07:00 +1°C° 0 mm 6 mps 729 mmHg 83%
    08:00 +1°C° 0 mm 5 mps 730 mmHg 83%
    09:00 +1°C° 0 mm 5 mps 730 mmHg 81%
    10:00 +1°C° 0 mm 5 mps 730 mmHg 80%
    11:00 +3°C° 0 mm 4 mps 730 mmHg 79%
    12:00 +3°C° 0 mm 4 mps 730 mmHg 76%
    13:00 +3°C° 0 mm 4 mps 729 mmHg 73%
    14:00 +4°C° 0 mm 3 mps 729 mmHg 71%
    15:00 +4°C° 0 mm 3 mps 729 mmHg 74%
    16:00 +4°C° 0 mm 2 mps 729 mmHg 76%
    17:00 +4°C° 0 mm 2 mps 729 mmHg 79%
    18:00 +4°C° 0 mm 2 mps 729 mmHg 81%
    19:00 +4°C° 0 mm 1 mps 728 mmHg 84%
    20:00 +4°C° 0 mm 1 mps 728 mmHg 86%
    21:00 +4°C° 0 mm 1 mps 728 mmHg 88%
    22:00 +3°C° 0 mm 1 mps 729 mmHg 90%
    23:00 +2°C° 0 mm 2 mps 729 mmHg 91%

    Day after tomorrow, 26 October, Friday

    Time Temperature Precipitation Wind Pressure Humidity
    00:00 +2°C° 0 mm 2 mps 729 mmHg 92%
    01:00 +1°C° 0 mm 2 mps 729 mmHg 92%
    02:00 +1°C° 0 mm 2 mps 730 mmHg 92%
    03:00 +1°C° 0 mm 2 mps 730 mmHg 92%
    04:00 +2°C° 0 mm 2 mps 730 mmHg 91%
    05:00 +1°C° 0 mm 3 mps 730 mmHg 91%
    06:00 +1°C° 0.1 mm 3 mps 731 mmHg 90%
    07:00 +1°C° 0.1 mm 3 mps 731 mmHg 89%
    08:00 0°C° 0.1 mm 4 mps 731 mmHg 89%
    09:00 +1°C° 0 mm 4 mps 732 mmHg 84%
    10:00 +3°C° 0 mm 4 mps 732 mmHg 80%
    11:00 +4°C° 0 mm 4 mps 732 mmHg 76%
    12:00 +4°C° 0 mm 4 mps 732 mmHg 73%
    13:00 +5°C° 0 mm 4 mps 733 mmHg 70%
    14:00 +5°C° 0 mm 4 mps 733 mmHg 68%
    15:00 +4°C° 0 mm 3 mps 733 mmHg 73%
    16:00 +4°C° 0 mm 3 mps 733 mmHg 78%
    17:00 +3°C° 0 mm 3 mps 733 mmHg 83%
    18:00 +3°C° 0 mm 3 mps 733 mmHg 84%
    19:00 +3°C° 0 mm 3 mps 733 mmHg 86%
    20:00 +2°C° 0 mm 3 mps 733 mmHg 87%
    21:00 +3°C° 0.5 mm 4 mps 732 mmHg 88%
    22:00 +3°C° 0.5 mm 4 mps 732 mmHg 88%
    23:00 +3°C° 0.5 mm 5 mps 732 mmHg 88%

    27 October, Saturday

    Time Temperature Precipitation Wind Pressure Humidity
    00:00 +3°C° 0.6 mm 6 mps 731 mmHg 87%
    01:00 +3°C° 0.6 mm 6 mps 730 mmHg 86%
    02:00 +3°C° 0.6 mm 7 mps 729 mmHg 85%
    03:00 +4°C° 0.5 mm 7 mps 728 mmHg 86%
    04:00 +4°C° 0.5 mm 7 mps 727 mmHg 86%
    05:00 +5°C° 0.5 mm 8 mps 726 mmHg 87%
    06:00 +5°C° 0.6 mm 8 mps 726 mmHg 85%
    07:00 +5°C° 0.6 mm 8 mps 726 mmHg 83%
    08:00 +6°C° 0.6 mm 8 mps 725 mmHg 82%
    09:00 +6°C° 0.3 mm 8 mps 726 mmHg 78%
    10:00 +5°C° 0.3 mm 9 mps 726 mmHg 75%
    11:00 +5°C° 0.3 mm 9 mps 726 mmHg 72%
    12:00 +5°C° 0.1 mm 9 mps 728 mmHg 72%
    13:00 +5°C° 0.1 mm 8 mps 729 mmHg 72%
    14:00 +4°C° 0.1 mm 8 mps 730 mmHg 73%
    15:00 +4°C° 0.1 mm 7 mps 731 mmHg 73%
    16:00 +3°C° 0.1 mm 6 mps 732 mmHg 74%
    17:00 +3°C° 0.1 mm 6 mps 733 mmHg 75%
    18:00 +2°C° 0 mm 5 mps 734 mmHg 79%
    19:00 +1°C° 0 mm 4 mps 735 mmHg 82%
    20:00 +1°C° 0 mm 3 mps 736 mmHg 86%
    21:00 +1°C° 0 mm 3 mps 737 mmHg 88%
    22:00 0°C° 0 mm 3 mps 738 mmHg 90%
    23:00 +1°C° 0 mm 2 mps 739 mmHg 92%

    28 October, Sunday

    Time Temperature Precipitation Wind Pressure Humidity
    00:00 +1°C° 0 mm 2 mps 739 mmHg 92%
    01:00 -1°C° 0 mm 2 mps 740 mmHg 93%
    02:00 -1°C° 0 mm 2 mps 740 mmHg 93%
    03:00 -1°C° 0 mm 2 mps 741 mmHg 93%
    04:00 -1°C° 0 mm 2 mps 741 mmHg 93%
    05:00 +1°C° 0 mm 1 mps 742 mmHg 94%
    06:00 +1°C° 0 mm 1 mps 743 mmHg 92%
    07:00 +1°C° 0 mm 1 mps 744 mmHg 91%
    08:00 +1°C° 0 mm 1 mps 744 mmHg 89%
    09:00 +2°C° 0 mm 1 mps 745 mmHg 82%
    10:00 +4°C° 0 mm 1 mps 746 mmHg 74%
    11:00 +5°C° 0 mm 1 mps 746 mmHg 66%
    12:00 +5°C° 0 mm 1 mps 747 mmHg 64%
    13:00 +6°C° 0 mm 1 mps 747 mmHg 62%
    14:00 +6°C° 0 mm 1 mps 747 mmHg 60%
    15:00 +5°C° 0 mm 1 mps 748 mmHg 65%
    16:00 +4°C° 0 mm 1 mps 748 mmHg 70%
    17:00 +2°C° 0 mm 1 mps 748 mmHg 75%
    18:00 +2°C° 0 mm 1 mps 749 mmHg 75%
    19:00 +2°C° 0 mm 1 mps 749 mmHg 76%
    20:00 +2°C° 0 mm 1 mps 749 mmHg 76%
    21:00 +2°C° 0 mm 1 mps 750 mmHg 77%
    22:00 +2°C° 0 mm 1 mps 750 mmHg 77%
    23:00 +2°C° 0 mm 1 mps 750 mmHg 78%

    29 October, Monday

    Time Temperature Precipitation Wind Pressure Humidity
    00:00 +1°C° 0 mm 2 mps 750 mmHg 78%
    01:00 +1°C° 0 mm 2 mps 750 mmHg 78%
    02:00 +1°C° 0 mm 2 mps 750 mmHg 78%
    03:00 +1°C° 0 mm 2 mps 750 mmHg 78%
    04:00 0°C° 0 mm 3 mps 750 mmHg 79%
    05:00 0°C° 0 mm 3 mps 750 mmHg 79%
    06:00 0°C° 0.1 mm 3 mps 749 mmHg 79%
    07:00 -1°C° 0.1 mm 4 mps 749 mmHg 79%
    08:00 -1°C° 0.1 mm 4 mps 749 mmHg 80%
    09:00 0°C° 0.3 mm 4 mps 749 mmHg 80%
    10:00 0°C° 0.3 mm 5 mps 749 mmHg 80%
    11:00 0°C° 0.3 mm 5 mps 749 mmHg 81%
    12:00 0°C° 0.8 mm 5 mps 748 mmHg 82%
    13:00 -1°C° 0.8 mm 6 mps 748 mmHg 84%
    14:00 -2°C° 0.8 mm 6 mps 747 mmHg 86%
    15:00 -2°C° 1.1 mm 7 mps 747 mmHg 88%
    16:00 -2°C° 1.1 mm 7 mps 746 mmHg 89%
    17:00 -2°C° 1.1 mm 7 mps 746 mmHg 90%
    18:00 -2°C° 0.9 mm 7 mps 746 mmHg 91%
    19:00 -2°C° 0.9 mm 7 mps 745 mmHg 91%
    20:00 -2°C° 0.9 mm 7 mps 745 mmHg 91%
    21:00 -2°C° 0.9 mm 7 mps 745 mmHg 92%
    22:00 -2°C° 0.9 mm 7 mps 745 mmHg 92%
    23:00 -2°C° 0.9 mm 7 mps 744 mmHg 92%

    30 October, Tuesday

    Time Temperature Precipitation Wind Pressure Humidity
    00:00 -2°C° 0.5 mm 7 mps 744 mmHg 93%
    01:00 -2°C° 0.5 mm 6 mps 744 mmHg 93%
    02:00 -2°C° 0.5 mm 6 mps 744 mmHg 93%
    03:00 -2°C° 0.7 mm 6 mps 743 mmHg 94%
    04:00 -2°C° 0.7 mm 6 mps 743 mmHg 94%
    05:00 -2°C° 0.7 mm 6 mps 743 mmHg 94%
    06:00 -2°C° 0.8 mm 6 mps 743 mmHg 95%
    07:00 -1°C° 0.8 mm 5 mps 744 mmHg 95%
    08:00 0°C° 0.8 mm 5 mps 744 mmHg 95%
    09:00 0°C° 0.1 mm 5 mps 744 mmHg 95%
    10:00 0°C° 0.1 mm 5 mps 745 mmHg 95%
    11:00 0°C° 0.1 mm 5 mps 745 mmHg 95%
    12:00 0°C° 0 mm 5 mps 745 mmHg 95%
    13:00 +1°C° 0 mm 5 mps 745 mmHg 95%
    14:00 +1°C° 0 mm 5 mps 746 mmHg 95%
    15:00 +1°C° 0 mm 5 mps 746 mmHg 95%
    16:00 +1°C° 0 mm 5 mps 746 mmHg 95%
    17:00 +1°C° 0 mm 6 mps 746 mmHg 95%
    18:00 +1°C° 0 mm 6 mps 746 mmHg 95%
    19:00 +2°C° 0 mm 6 mps 746 mmHg 95%
    20:00 +2°C° 0 mm 6 mps 746 mmHg 94%
    21:00 +2°C° 0 mm 6 mps 746 mmHg 94%
    22:00 +2°C° 0 mm 6 mps 746 mmHg 94%
    23:00 +3°C° 0 mm 6 mps 747 mmHg 93%
    Show more